Location: Allaines
(49.9632°N, 2.9458°E)
Time: 22:43:21
(UTC+00:00)

X-37B - Pass Details

Date: 29 June 2021
Orbit: 383 x 392 km, 45.0° (Epoch: 01 July)

Event Time Altitude Azimuth Distance (km) Brightness Sun altitude
Rises 21:04:33 0° 260° (W) 2,258 4.9 -8.0°
Reaches altitude 10° 21:06:44 10° 250° (WSW) 1,403 3.6 -8.2°
Maximum altitude 21:09:36 32° 185° (S) 685 1.4 -8.5°
Enters shadow 21:12:17 11° 121° (ESE) 1,333 2.7 -8.8°
